Weather History for Crisp Cnty-Cordele AP, Cordel, GA

Change the Weather History Date:

Wednesday, January 15, 2014

  Actual Average (KABY) Record (KABY)
Temperature  
Mean Temperature 50 °F 49 °F  
Max Temperature 63 °F 61 °F 83 °F (1932)
Min Temperature 38 °F 38 °F 16 °F (1964)
Degree Days  
Heating Degree Days 15 16  
Month to date heating degree days 240  
Since 1 July heating degree days 953  
Cooling Degree Days 0 0  
Month to date cooling degree days 0  
Year to date cooling degree days 0  
Moisture  
Dew Point 37 °F    
Average Humidity 67    
Maximum Humidity 95    
Minimum Humidity 39    
Precipitation  
Precipitation 0.00 in - 0.18 in (2015)
Sea Level Pressure  
Sea Level Pressure 30.01 in    
Wind  
Wind Speed 3 mph (NW)    
Max Wind Speed 13 mph    
Max Gust Speed 21 mph    
Visibility 10 miles    
Events      
T = Trace of Precipitation, MM = Missing Value Source: NWS Daily Summary

Daily Weather History Graph

Daily Weather History Graph

Search for Another Location

Airport:

Trip Planner

Search our weather history database for the weather conditions in past years. The results will help you decide how hot, cold, wet, or windy it might be!

Date:

Astronomy

Jan. 15, 2014 Rise Set
Actual Time 7:35 AM EST 5:53 PM EST
Civil Twilight 7:09 AM EST 6:19 PM EST
Nautical Twilight 6:39 AM EST 6:49 PM EST
Astronomical Twilight 6:10 AM EST 7:19 PM EST
Moon 5:46 PM EST (1/15) 6:54 AM EST (1/15)
Length of Visible Light 11h 10m
Length of Day
10h 17m
Full, 100% of the Moon is Illuminated
Jan 15
Full
Jan 15
Full
Jan 24
Last Quarter
Jan 30
New
Feb 6
First Quarter

Hourly Weather History & Observations

Time (EST) Temp. Windchill Dew Point Humidity Pressure Visibility Wind Dir Wind Speed Gust Speed Precip Events Conditions
12:15 AM 44.4 °F - 41.9 °F 91% 30.04 in 10.0 mi Calm Calm - N/A   Clear
12:35 AM 43.9 °F - 41.4 °F 91% 30.03 in 10.0 mi Calm Calm - N/A   Clear
12:55 AM 43.7 °F - 41.0 °F 90% 30.02 in 10.0 mi Calm Calm - N/A   Clear
1:15 AM 43.3 °F - 40.8 °F 91% 30.02 in 10.0 mi Calm Calm - N/A   Clear
1:35 AM 42.8 °F - 40.3 °F 91% 30.01 in 10.0 mi Calm Calm - N/A   Clear
1:55 AM 42.8 °F - 40.8 °F 93% 30.02 in 10.0 mi Calm Calm - N/A   Clear
2:15 AM 42.8 °F - 40.3 °F 91% 30.03 in 10.0 mi Calm Calm - N/A   Clear
2:35 AM 42.1 °F - 40.3 °F 93% 30.02 in 10.0 mi Calm Calm - N/A   Clear
2:55 AM 41.5 °F - 39.6 °F 93% 30.02 in 10.0 mi Calm Calm - N/A   Clear
3:15 AM 41.9 °F - 40.1 °F 93% 30.02 in 10.0 mi Calm Calm - N/A   Clear
3:35 AM 41.2 °F - 39.4 °F 93% 30.02 in 10.0 mi Calm Calm - N/A   Clear
3:55 AM 40.6 °F - 39.0 °F 94% 30.01 in 10.0 mi Calm Calm - N/A   Clear
4:15 AM 40.5 °F - 38.5 °F 93% 30.01 in 10.0 mi Calm Calm - N/A   Clear
4:35 AM 40.3 °F - 38.7 °F 94% 30.01 in 10.0 mi Calm Calm - N/A   Clear
4:55 AM 39.9 °F - 38.3 °F 94% 30.01 in 10.0 mi Calm Calm - N/A   Clear
5:15 AM 39.9 °F - 38.5 °F 95% 30.00 in 10.0 mi Calm Calm - N/A   Clear
5:35 AM 41.0 °F - 39.0 °F 93% 30.01 in 10.0 mi Calm Calm - N/A   Clear
5:55 AM 39.9 °F - 38.3 °F 94% 30.01 in 10.0 mi Calm Calm - N/A   Clear
6:15 AM 39.9 °F - 38.1 °F 93% 30.01 in 10.0 mi Calm Calm - N/A   Clear
6:35 AM 39.7 °F - 37.9 °F 93% 30.01 in 10.0 mi Calm Calm - N/A   Clear
6:55 AM 39.9 °F - 38.1 °F 93% 30.01 in 10.0 mi Calm Calm - N/A   Clear
7:15 AM 38.7 °F - 37.2 °F 95% 30.01 in 10.0 mi Calm Calm - N/A   Clear
7:35 AM 39.0 °F - 37.2 °F 93% 30.02 in 10.0 mi Calm Calm - N/A   Clear
7:55 AM 39.0 °F - 37.2 °F 93% 30.03 in 10.0 mi Calm Calm - N/A   Clear
8:15 AM 40.3 °F - 38.3 °F 93% 30.04 in 10.0 mi Calm Calm - N/A   Clear
8:35 AM 41.9 °F - 39.4 °F 91% 30.04 in 10.0 mi Calm Calm - N/A   Clear
8:55 AM 46.2 °F 45.0 °F 41.2 °F 83% 30.04 in 10.0 mi SW 3.5 mph - N/A   Clear
9:15 AM 47.8 °F - 41.9 °F 80% 30.05 in 10.0 mi WSW 3.5 mph - N/A   Clear
9:35 AM 49.3 °F - 41.9 °F 76% 30.05 in 10.0 mi SW 4.6 mph - N/A   Clear
9:55 AM 51.4 °F - 41.9 °F 70% 30.05 in 10.0 mi Calm Calm - N/A   Clear
10:15 AM 53.4 °F - 40.5 °F 61% 30.05 in 10.0 mi WSW 4.6 mph - N/A   Clear
10:35 AM 54.5 °F - 40.3 °F 59% 30.05 in 10.0 mi West 4.6 mph - N/A   Clear
10:55 AM 55.0 °F - 39.0 °F 55% 30.05 in 10.0 mi West 4.6 mph - N/A   Clear
11:15 AM 55.6 °F - 40.1 °F 56% 30.04 in 10.0 mi WSW 5.8 mph - N/A   Clear
11:35 AM 56.8 °F - 39.9 °F 53% 30.03 in 10.0 mi WNW 6.9 mph - N/A   Clear
11:55 AM 57.6 °F - 39.7 °F 51% 30.01 in 10.0 mi NNW 6.9 mph - N/A   Clear
12:15 PM 58.1 °F - 39.0 °F 49% 30.00 in 10.0 mi Calm Calm - N/A   Clear
12:35 PM 58.6 °F - 39.2 °F 48% 29.99 in 10.0 mi NNW 5.8 mph - N/A   Clear
12:55 PM 59.4 °F - 38.1 °F 45% 29.97 in 10.0 mi NW 4.6 mph - N/A   Clear
1:15 PM 59.2 °F - 38.5 °F 46% 29.97 in 10.0 mi WNW 11.5 mph 16.1 mph N/A   Clear
1:35 PM 59.9 °F - 39.4 °F 47% 29.96 in 10.0 mi WNW 4.6 mph - N/A   Clear
1:55 PM 61.5 °F - 38.8 °F 43% 29.95 in 10.0 mi NW 6.9 mph - N/A   Scattered Clouds
2:15 PM 62.6 °F - 37.6 °F 40% 29.95 in 10.0 mi NNW 9.2 mph - N/A   Mostly Cloudy
2:35 PM 62.4 °F - 37.4 °F 40% 29.95 in 10.0 mi NW 9.2 mph - N/A   Mostly Cloudy
2:55 PM 59.4 °F - 36.7 °F 43% 29.95 in 10.0 mi NW 8.1 mph - N/A   Mostly Cloudy
3:15 PM 61.0 °F - 36.0 °F 39% 29.95 in 10.0 mi NNW 9.2 mph 16.1 mph N/A   Overcast
3:35 PM 58.5 °F - 36.1 °F 43% 29.96 in 10.0 mi WNW 9.2 mph - N/A   Overcast
3:55 PM 58.1 °F - 36.3 °F 44% 29.96 in 10.0 mi NW 10.4 mph - N/A   Overcast
4:15 PM 57.4 °F - 36.7 °F 46% 29.97 in 10.0 mi NW 10.4 mph - N/A   Overcast
4:35 PM 56.5 °F - 36.5 °F 47% 29.98 in 10.0 mi NNW 12.7 mph - N/A   Overcast
4:55 PM 55.8 °F - 36.1 °F 48% 29.98 in 10.0 mi NNW 8.1 mph - N/A   Overcast
5:15 PM 55.4 °F - 34.3 °F 45% 29.99 in 10.0 mi NNW 12.7 mph 18.4 mph N/A   Overcast
5:35 PM 54.1 °F - 34.5 °F 48% 29.99 in 10.0 mi NW 10.4 mph 20.7 mph N/A   Mostly Cloudy
5:55 PM 52.5 °F - 34.9 °F 51% 29.99 in 10.0 mi NNW 11.5 mph 16.1 mph N/A   Scattered Clouds
6:15 PM 51.6 °F - 35.4 °F 54% 30.00 in 10.0 mi NW 8.1 mph - N/A   Scattered Clouds
6:35 PM 50.9 °F - 34.7 °F 54% 30.00 in 10.0 mi NW 6.9 mph - N/A   Clear
6:55 PM 49.6 °F - 34.3 °F 56% 30.01 in 10.0 mi NW 5.8 mph - N/A   Clear
7:15 PM 48.9 °F - 34.3 °F 57% 30.01 in 10.0 mi NW 3.5 mph - N/A   Clear
7:35 PM 48.2 °F - 34.0 °F 58% 30.02 in 10.0 mi NW 3.5 mph - N/A   Clear
7:55 PM 47.3 °F - 33.1 °F 58% 30.03 in 10.0 mi WNW 3.5 mph - N/A   Clear
8:15 PM 47.3 °F - 32.0 °F 55% 30.04 in 10.0 mi NW 4.6 mph - N/A   Clear
8:35 PM 46.6 °F - 31.3 °F 55% 30.04 in 10.0 mi NW 3.5 mph - N/A   Clear
8:55 PM 46.2 °F 44.1 °F 30.4 °F 54% 30.04 in 10.0 mi NW 4.6 mph - N/A   Clear
9:15 PM 45.5 °F 43.2 °F 29.8 °F 54% 30.05 in 10.0 mi NW 4.6 mph - N/A   Clear
9:35 PM 44.6 °F 43.1 °F 29.7 °F 56% 30.04 in 10.0 mi WNW 3.5 mph - N/A   Clear
9:55 PM 43.5 °F 41.9 °F 30.6 °F 60% 30.04 in 10.0 mi NW 3.5 mph - N/A   Clear
10:15 PM 43.7 °F 42.1 °F 30.2 °F 59% 30.05 in 10.0 mi WNW 3.5 mph - N/A   Clear
10:35 PM 43.0 °F 39.5 °F 29.5 °F 59% 30.06 in 10.0 mi WNW 5.8 mph - N/A   Clear
10:55 PM 43.0 °F 38.2 °F 28.2 °F 56% 30.06 in 10.0 mi NW 8.1 mph - N/A   Clear
11:15 PM 43.5 °F 37.5 °F 24.8 °F 48% 30.07 in 10.0 mi NNW 11.5 mph 16.1 mph N/A   Clear
11:35 PM 43.0 °F 37.2 °F 21.9 °F 43% 30.08 in 10.0 mi North 10.4 mph 19.6 mph N/A   Clear
11:55 PM 42.3 °F 37.3 °F 21.6 °F 44% 30.08 in 10.0 mi NNW 8.1 mph - N/A   Clear